(76014) = 2000 DV28 = 2001 KH75

Discovered at Socorro on 2000-02-29 by LINEAR.

Orbit

Orbit type: Main Belt

Note: WebGL enabled browser required.

epoch2024-03-31.0
epoch JD2460400.5
perihelion date2022-08-12.76644
perihelion JD2459804.26644
argument of perihelion (°)10.11109
ascending node (°)293.43887
inclination (°)0.41261
eccentricity0.0486744
perihelion distance (AU)2.8185965
Tisserand w.r.t. Jupiter3.3
ΔV w.r.t. Earth (km/sec)10.4
semimajor axis (AU)2.9628093
mean anomaly (°)115.22977
mean daily motion (°/day)0.19326280
aphelion distance (AU)3.107
period (years)5.1
P-vector [x]0.55265973
P-vector [y]-0.76513798
P-vector [z]-0.33034996
Q-vector [x]0.83338080
Q-vector [y]0.50422986
Q-vector [z]0.22633754
absolute magnitude15.08
phase slope0.15
uncertainty0
referenceMPEC 2024-E144
observations used1353
oppositions20
arc length (days)8786
first opposition used2000
last opposition used2024
residual rms (arc-secs)0.74
perturbers coarse indicatorM-v
perturbers precise indicator003Ek
first observation date used2000-01-10.0
last observation date used2024-01-30.0
computer nameMPCLINUX
JD of orbit computation2456966.871050
perihelion JD uncertainty (days)2.5811E-04
argument of perihelion uncertainty (°)6.0750E-04
ascending node uncertainty (°)6.0554E-04
inclination uncertainty (°)3.8194E-06
eccentricity uncertainty 3.5651E-08
perihelion distance uncertainty (AU)1.0128E-07
Minimum Orbit Intersection Distances (in AU)
for orbit epoch: 2460400.5, reference: E2024-EE4
Mercury2.37232
Venus2.09141
Earth1.80301
Mars1.36177
Jupiter1.99858
Saturn5.95573
Uranus15.3649
Neptune26.8418

Observations

1383 total observations over interval: 2000 01 10.51636 – 2024 01 30.116929
These data are available for download (format description).

Date (UT) J2000 RA J2000 Dec Magn Location Ref
2000 01 10.51636 10 33 13.24 +08 49 58.3 19.7 V 691 – Steward Observatory, Kitt Peak-Spacewatch MPS 32275
2000 01 10.53102 10 33 13.02 +08 49 59.1 19.4 V 691 – Steward Observatory, Kitt Peak-Spacewatch MPS 32275
2000 01 10.54560 10 33 12.79 +08 50 00.5 19.4 V 691 – Steward Observatory, Kitt Peak-Spacewatch MPS 32275
2000 02 29.17870 10 01 23.32 +11 43 24.8 19.0   704 – Lincoln Laboratory ETS, New Mexico MPS 11181
2000 02 29.19297 10 01 22.65 +11 43 27.4 19.9   704 – Lincoln Laboratory ETS, New Mexico MPS 11181
2000 02 29.20634 10 01 21.93 +11 43 30.7 19.5   704 – Lincoln Laboratory ETS, New Mexico MPS 11181
2000 02 29.21971 10 01 21.31 +11 43 33.9 19.7   704 – Lincoln Laboratory ETS, New Mexico MPS 11181
2000 02 29.23310 10 01 20.65 +11 43 37.6 19.5   704 – Lincoln Laboratory ETS, New Mexico MPS 11181
2000 03 03.19041 09 59 03.50 +11 55 45.3 19.1   704 – Lincoln Laboratory ETS, New Mexico MPS 11181
2000 03 03.20369 09 59 02.87 +11 55 48.0 19.3   704 – Lincoln Laboratory ETS, New Mexico MPS 11181
2000 03 03.21696 09 59 02.25 +11 55 52.6 19.2   704 – Lincoln Laboratory ETS, New Mexico MPS 11181
2000 03 03.23021 09 59 01.64 +11 55 55.4 19.2   704 – Lincoln Laboratory ETS, New Mexico MPS 11181
2000 03 03.24347 09 59 01.02 +11 55 59.0 19.7   704 – Lincoln Laboratory ETS, New Mexico MPS 11181
2000 03 05.63318 09 57 13.92 +12 05 23.0 19.4   327 – Peking Observatory, Xinglong Station MPS 20899
2000 03 05.64752 09 57 13.21 +12 05 26.3   327 – Peking Observatory, Xinglong Station MPS 20899
2000 03 05.66174 09 57 12.60 +12 05 29.7   327 – Peking Observatory, Xinglong Station MPS 20899
2001 05 21.27368 15 31 47.14 -19 39 05.5 18.9   704 – Lincoln Laboratory ETS, New Mexico MPS 31815
2001 05 21.28513 15 31 46.52 -19 39 02.4 19.1   704 – Lincoln Laboratory ETS, New Mexico MPS 31815
2001 05 21.30809 15 31 45.38 -19 38 59.1 19.5   704 – Lincoln Laboratory ETS, New Mexico MPS 31815
2001 05 21.31956 15 31 44.74 -19 38 56.9 19.1   704 – Lincoln Laboratory ETS, New Mexico MPS 31815
2001 05 29.33299 15 25 10.58 -19 14 38.4 19.7   608 – Haleakala-AMOS MPS 31815
2001 05 29.34331 15 25 10.07 -19 14 36.3 20.1   608 – Haleakala-AMOS MPS 31815
2001 05 29.35436 15 25 09.56 -19 14 34.4 20.1   608 – Haleakala-AMOS MPS 31815
2001 05 31.26485 15 23 40.97 -19 08 57.1 19.1   644 – Palomar Mountain/NEAT MPS 31815
2001 05 31.27574 15 23 40.45 -19 08 54.9 19.3   644 – Palomar Mountain/NEAT MPS 31815
2001 05 31.28662 15 23 39.94 -19 08 53.1 19.7   644 – Palomar Mountain/NEAT MPS 31815
2002 08 12.30468 22 42 11.14 -07 48 35.2 17.5 R 807 – Cerro Tololo Observatory, La Serena MPS 62887
2002 08 12.38292 22 42 07.92 -07 48 53.0   807 – Cerro Tololo Observatory, La Serena MPS 62887
2002 08 27.37556 22 31 03.20 -08 52 34.0 18.0   644 – Palomar Mountain/NEAT MPS 62887
2002 08 27.38626 22 31 02.68 -08 52 36.9 18.4   644 – Palomar Mountain/NEAT MPS 62887
2002 08 27.40348 22 31 01.85 -08 52 41.5 18.3   644 – Palomar Mountain/NEAT MPS 62887
2002 09 04.20047 22 24 57.31 -09 27 19.2 18.9   644 – Palomar Mountain/NEAT MPS 60981
2002 09 04.20484 22 24 57.12 -09 27 19.4 18.9   644 – Palomar Mountain/NEAT MPS 60981
2002 09 04.26500 22 24 54.24 -09 27 36.1 18.7   644 – Palomar Mountain/NEAT MPS 60981
2002 09 04.27468 22 24 53.81 -09 27 37.9 18.6   644 – Palomar Mountain/NEAT MPS 60981
2002 09 04.32989 22 24 51.15 -09 27 53.1 18.7   644 – Palomar Mountain/NEAT MPS 60981
2002 09 04.34305 22 24 50.54 -09 27 55.7 18.5   644 – Palomar Mountain/NEAT MPS 60981
2002 09 05.20970 22 24 11.03 -09 31 41.4 18.4 R 699 – Lowell Observatory-LONEOS MPS 62887
2002 09 05.21033 22 24 10.98 -09 31 40.7 19.0   704 – Lincoln Laboratory ETS, New Mexico MPS 60981
2002 09 05.22459 22 24 10.24 -09 31 44.0 19.2   704 – Lincoln Laboratory ETS, New Mexico MPS 60981
2002 09 05.22729 22 24 10.10 -09 31 45.0   699 – Lowell Observatory-LONEOS MPS 62887
2002 09 05.23876 22 24 09.60 -09 31 48.1 19.7   704 – Lincoln Laboratory ETS, New Mexico MPS 60981
2002 09 05.24484 22 24 09.34 -09 31 50.1   699 – Lowell Observatory-LONEOS MPS 62887
2002 09 05.25287 22 24 08.86 -09 31 52.4 19.1   704 – Lincoln Laboratory ETS, New Mexico MPS 60981
2002 09 05.26245 22 24 08.51 -09 31 53.7   699 – Lowell Observatory-LONEOS MPS 62887
2002 09 05.26699 22 24 08.26 -09 31 54.7 19.2   704 – Lincoln Laboratory ETS, New Mexico MPS 60981
2002 09 14.22131 22 17 41.03 -10 08 20.7 19.0   644 – Palomar Mountain/NEAT MPS 60981
2002 09 14.24239 22 17 40.15 -10 08 25.7 19.1   644 – Palomar Mountain/NEAT MPS 60981
2002 09 14.26345 22 17 39.27 -10 08 30.3 18.8   644 – Palomar Mountain/NEAT MPS 60981
2002 09 26.12603 22 10 52.26 -10 46 29.7 19.9   644 – Palomar Mountain/NEAT MPS 62887
2002 09 26.14652 22 10 51.68 -10 46 32.7 19.3   644 – Palomar Mountain/NEAT MPS 62887
2002 09 26.16745 22 10 51.08 -10 46 36.2 19.3   644 – Palomar Mountain/NEAT MPS 62887
2003 10 16.46348 04 40 37.68 +22 39 41.3 20.3 V 691 – Steward Observatory, Kitt Peak-Spacewatch MPS 87284
2003 10 16.48638 04 40 37.34 +22 39 40.8 20.3 V 691 – Steward Observatory, Kitt Peak-Spacewatch MPS 87284
2003 10 16.50805 04 40 37.00 +22 39 40.4 20.6 V 691 – Steward Observatory, Kitt Peak-Spacewatch MPS 87284
2003 10 23.39449 04 38 23.98 +22 35 52.6 19.3   704 – Lincoln Laboratory ETS, New Mexico MPS 87793
2003 10 23.40687 04 38 23.65 +22 35 52.3 20.1   704 – Lincoln Laboratory ETS, New Mexico MPS 87793
2003 10 23.43097 04 38 23.01 +22 35 51.2 20.0   704 – Lincoln Laboratory ETS, New Mexico MPS 87793
2003 10 23.44291 04 38 22.71 +22 35 51.2 20.4   704 – Lincoln Laboratory ETS, New Mexico MPS 87793
2003 10 26.48723 04 37 01.06 +22 33 20.8 21.2 V 691 – Steward Observatory, Kitt Peak-Spacewatch MPS 87793
2003 10 26.49816 04 37 00.72 +22 33 20.5 20.9 V 691 – Steward Observatory, Kitt Peak-Spacewatch MPS 87793
2003 10 26.50885 04 37 00.39 +22 33 20.3 20.5 V 691 – Steward Observatory, Kitt Peak-Spacewatch MPS 87793
2003 10 27.48995 04 36 31.27 +22 32 25.1 20.0 V 691 – Steward Observatory, Kitt Peak-Spacewatch MPS 89311
2003 10 27.50368 04 36 30.83 +22 32 24.4 20.3 V 691 – Steward Observatory, Kitt Peak-Spacewatch MPS 89311
2003 10 27.51716 04 36 30.41 +22 32 23.4 20.2 V 691 – Steward Observatory, Kitt Peak-Spacewatch MPS 89311
2003 11 15.52963 04 23 16.18 +22 04 20.8 19.1   644 – Palomar Mountain/NEAT MPS 90903
2003 11 15.53110 04 23 16.13 +22 04 20.7 19.5   644 – Palomar Mountain/NEAT MPS 90903
2003 11 15.54014 04 23 15.66 +22 04 19.4 19.4   644 – Palomar Mountain/NEAT MPS 90903
2003 11 15.54167 04 23 15.57 +22 04 19.2 19.3   644 – Palomar Mountain/NEAT MPS 90903
2003 11 15.55345 04 23 15.00 +22 04 17.6 19.2   644 – Palomar Mountain/NEAT MPS 90903
2003 11 15.55492 04 23 14.87 +22 04 17.6 19.6   644 – Palomar Mountain/NEAT MPS 90903
2003 11 19.25453 04 20 03.11 +21 56 43.2 19.4 V 691 – Steward Observatory, Kitt Peak-Spacewatch MPS 90903
2003 11 19.28280 04 20 01.57 +21 56 39.5 19.7 V 691 – Steward Observatory, Kitt Peak-Spacewatch MPS 90903
2003 11 19.31028 04 20 00.07 +21 56 36.1 19.6 V 691 – Steward Observatory, Kitt Peak-Spacewatch MPS 90903
2003 11 21.26744 04 18 15.66 +21 52 20.0 19.0   704 – Lincoln Laboratory ETS, New Mexico MPS 91717
2003 11 21.28049 04 18 15.00 +21 52 19.0 19.7   704 – Lincoln Laboratory ETS, New Mexico MPS 91717
2003 11 21.29292 04 18 14.27 +21 52 17.3 19.6   704 – Lincoln Laboratory ETS, New Mexico MPS 91717
2003 11 21.31890 04 18 12.84 +21 52 13.9 20.0   704 – Lincoln Laboratory ETS, New Mexico MPS 91717
2003 11 23.28575 04 16 26.65 +21 47 48.4 19.7   704 – Lincoln Laboratory ETS, New Mexico MPS 91717
2003 11 23.29826 04 16 25.98 +21 47 46.7 19.7   704 – Lincoln Laboratory ETS, New Mexico MPS 91717
2003 11 23.31086 04 16 25.19 +21 47 45.0 19.4   704 – Lincoln Laboratory ETS, New Mexico MPS 91717
2003 11 23.32343 04 16 24.47 +21 47 42.5 19.6   704 – Lincoln Laboratory ETS, New Mexico MPS 91717
2003 11 24.31338 04 15 30.94 +21 45 25.5 19.2   704 – Lincoln Laboratory ETS, New Mexico MPS 91717
2003 11 24.32603 04 15 30.24 +21 45 23.9 19.7   704 – Lincoln Laboratory ETS, New Mexico MPS 91717
2003 11 24.33850 04 15 29.44 +21 45 21.4 19.5   704 – Lincoln Laboratory ETS, New Mexico MPS 91717
2003 11 24.35111 04 15 28.75 +21 45 20.8 19.4   704 – Lincoln Laboratory ETS, New Mexico MPS 91717
